Tracking 19795 objects as of 20-Jul-2019
HD Live streaming from Space Station
objects crossing your sky now

LES 5

Track LES 5 now!
LES 5 is classified as:


NORAD ID: 2866
Int'l Code: 1967-066E
Perigee: 33,193.7 km
Apogee: 33,623.0 km
Inclination: 3.6 °
Period: 1,316.0 minutes
Semi major axis: 39779 km
RCS: 2.6184 m2 (large)
Launch date: July 1, 1967
Source: United States (US)
Launch site: AIR FORCE EASTERN TEST RANGE (AFETR)
aabbcc
Your satellite tracking list
Your tracking list is empty




NASA's NSSDC Master Catalog

Two Line Element Set (TLE):
1  2866U 67066E   19201.18190353 -.00000059  00000-0  00000+0 0  9994
2  2866   3.5661 281.1385 0053971 341.9724  81.5333  1.09424942103404
Source of the keplerian elements: AFSPC